Weather History for PAWN - July, 2013

Change the Weather History Date:

Wednesday, July 24, 2013

  Actual Average Record
Temperature  
Mean Temperature 50 °F -  
Max Temperature 59 °F 57 °F 80 °F (2007)
Min Temperature 42 °F 41 °F 30 °F (2000)
Degree Days  
Heating Degree Days 14    
Moisture  
Dew Point 37 °F    
Average Humidity 62    
Maximum Humidity 82    
Minimum Humidity 45    
Precipitation  
Precipitation 0.00 in - - ()
Sea Level Pressure  
Sea Level Pressure 30.17 in    
Wind  
Wind Speed 8 mph (WNW)    
Max Wind Speed 17 mph    
Max Gust Speed 22 mph    
Visibility 10 miles    
Events      
Averages and records for this station are not official NWS values.
T = Trace of Precipitation, MM = Missing Value Source: NWS Daily Summary

Daily Weather History Graph

Daily Weather History Graph

Search for Another Location

Airport or City:

Trip Planner

Search our weather history database for the weather conditions in past years. The results will help you decide how hot, cold, wet, or windy it might be!

Date:

Astronomy

Jul. 24, 2013 Rise Set
Actual Time 4:36 AM AKDT 1:15 AM AKDT
Civil Twilight Sun does not rise Sun does not rise
Nautical Twilight Sun does not rise Sun does not rise
Astronomical Twilight Sun does not rise Sun does not rise
Moon 11:55 PM AKDT (7/24) 9:27 AM AKDT (7/24)
Length of Visible Light 24h 00m
Length of Day
20h 39m
Waning Gibbous, 94% of the Moon is Illuminated
Jul 24
Waning Gibbous
Jul 29
Last Quarter
Aug 6
New
Aug 14
First Quarter
Aug 20
Full

Hourly Weather History & Observations

Time (AKDT) Temp. Windchill Dew Point Humidity Pressure Visibility Wind Dir Wind Speed Gust Speed Precip Events Conditions
12:16 AM 50.0 °F - 44.6 °F 82% 30.13 in 10.0 mi WNW 6.9 mph - N/A   Overcast
12:36 AM 48.2 °F - 42.8 °F 82% 30.13 in 10.0 mi NW 4.6 mph - N/A   Overcast
12:56 AM 48.2 °F - 42.8 °F 82% 30.13 in 10.0 mi Calm Calm - N/A   Overcast
1:16 AM 48.2 °F - 42.8 °F 82% 30.14 in 10.0 mi NW 5.8 mph - N/A   Overcast
1:36 AM 46.4 °F 42.4 °F 39.2 °F 76% 30.13 in 10.0 mi WNW 8.1 mph - N/A   Overcast
1:56 AM 46.4 °F 43.5 °F 39.2 °F 76% 30.13 in 10.0 mi WNW 5.8 mph - N/A   Overcast
2:16 AM 46.4 °F - 39.2 °F 76% 30.14 in 10.0 mi Calm Calm - N/A   Overcast
2:36 AM 46.4 °F 45.2 °F 39.2 °F 76% 30.14 in 10.0 mi NW 3.5 mph - N/A   Overcast
2:56 AM 46.4 °F 41.9 °F 35.6 °F 66% 30.14 in 10.0 mi WNW 9.2 mph - N/A   Overcast
3:16 AM 44.6 °F 39.2 °F 35.6 °F 71% 30.14 in 10.0 mi WNW 10.4 mph - N/A   Overcast
3:36 AM 44.6 °F 40.2 °F 33.8 °F 66% 30.14 in 10.0 mi WNW 8.1 mph 16.1 mph N/A   Overcast
3:56 AM 44.6 °F 41.4 °F 33.8 °F 66% 30.15 in 10.0 mi WNW 5.8 mph - N/A   Overcast
4:16 AM 44.6 °F - 35.6 °F 71% 30.15 in 10.0 mi Calm Calm - N/A   Overcast
4:36 AM 44.6 °F - 33.8 °F 66% 30.15 in 10.0 mi Calm Calm - N/A   Overcast
4:56 AM 44.6 °F 43.1 °F 33.8 °F 66% 30.15 in 10.0 mi NW 3.5 mph - N/A   Overcast
5:16 AM 44.6 °F - 33.8 °F 66% 30.15 in 10.0 mi Calm Calm - N/A   Overcast
5:36 AM 44.6 °F 41.4 °F 35.6 °F 71% 30.15 in 10.0 mi WNW 5.8 mph - N/A   Overcast
5:56 AM 44.6 °F 39.7 °F 35.6 °F 71% 30.15 in 10.0 mi West 9.2 mph - N/A   Overcast
6:16 AM 42.8 °F 38.6 °F 35.6 °F 76% 30.15 in 10.0 mi WNW 6.9 mph - N/A   Overcast
6:36 AM 42.8 °F 38.6 °F 35.6 °F 76% 30.15 in 10.0 mi WNW 6.9 mph - N/A   Overcast
6:56 AM 42.8 °F 41.1 °F 35.6 °F 76% 30.16 in 10.0 mi WNW 3.5 mph - N/A   Mostly Cloudy
7:16 AM 42.8 °F 38.6 °F 33.8 °F 70% 30.15 in 10.0 mi West 6.9 mph - N/A   Mostly Cloudy
7:36 AM 42.8 °F 41.1 °F 33.8 °F 70% 30.16 in 10.0 mi West 3.5 mph - N/A   Overcast
7:56 AM 42.8 °F 37.5 °F 33.8 °F 70% 30.16 in 10.0 mi West 9.2 mph - N/A   Scattered Clouds
8:16 AM 44.6 °F 39.7 °F 32.0 °F 61% 30.15 in 10.0 mi WNW 9.2 mph - N/A   Partly Cloudy
8:36 AM 44.6 °F 39.2 °F 32.0 °F 61% 30.16 in 10.0 mi WNW 10.4 mph - N/A   Partly Cloudy
8:56 AM 44.6 °F 37.2 °F 32.0 °F 61% 30.15 in 10.0 mi West 17.3 mph - N/A   Scattered Clouds
9:16 AM 44.6 °F 38.4 °F 33.8 °F 66% 30.16 in 10.0 mi WNW 12.7 mph - N/A   Mostly Cloudy
9:36 AM 44.6 °F 38.1 °F 33.8 °F 66% 30.16 in 10.0 mi NW 13.8 mph 18.4 mph N/A   Overcast
9:56 AM 44.6 °F 38.4 °F 33.8 °F 66% 30.17 in 10.0 mi WNW 12.7 mph - N/A   Overcast
10:16 AM 44.6 °F 38.1 °F 35.6 °F 71% 30.17 in 10.0 mi NW 13.8 mph 17.3 mph N/A   Overcast
10:36 AM 44.6 °F 37.8 °F 35.6 °F 71% 30.17 in 10.0 mi NW 15.0 mph - N/A   Overcast
10:56 AM 46.4 °F 40.1 °F 35.6 °F 66% 30.17 in 10.0 mi NW 15.0 mph - N/A   Overcast
11:16 AM 46.4 °F 41.1 °F 35.6 °F 66% 30.18 in 10.0 mi NW 11.5 mph - N/A   Overcast
11:36 AM 46.4 °F 41.1 °F 35.6 °F 66% 30.18 in 10.0 mi NW 11.5 mph - N/A   Overcast
11:56 AM 46.4 °F 41.9 °F 35.6 °F 66% 30.19 in 10.0 mi NW 9.2 mph - N/A   Overcast
12:16 PM 46.4 °F 41.1 °F 35.6 °F 66% 30.19 in 10.0 mi NW 11.5 mph 17.3 mph N/A   Overcast
12:36 PM 48.2 °F - 35.6 °F 62% 30.19 in 10.0 mi NW 9.2 mph - N/A   Overcast
12:56 PM 48.2 °F - 35.6 °F 62% 30.19 in 10.0 mi NW 12.7 mph - N/A   Overcast
1:16 PM 51.8 °F - 35.6 °F 54% 30.19 in 10.0 mi WNW 13.8 mph - N/A   Overcast
1:36 PM 51.8 °F - 35.6 °F 54% 30.19 in 10.0 mi NW 12.7 mph - N/A   Mostly Cloudy
1:56 PM 53.6 °F - 35.6 °F 51% 30.19 in 10.0 mi WNW 12.7 mph 18.4 mph N/A   Partly Cloudy
2:16 PM 53.6 °F - 35.6 °F 51% 30.19 in 10.0 mi WNW 11.5 mph - N/A   Clear
2:36 PM 55.4 °F - 35.6 °F 47% 30.18 in 10.0 mi NW 13.8 mph 18.4 mph N/A   Clear
2:56 PM 55.4 °F - 35.6 °F 47% 30.18 in 10.0 mi NW 12.7 mph - N/A   Clear
3:16 PM 55.4 °F - 37.4 °F 51% 30.18 in 10.0 mi NW 13.8 mph 19.6 mph N/A   Clear
3:36 PM 57.2 °F - 37.4 °F 48% 30.19 in 10.0 mi WNW 12.7 mph 19.6 mph N/A   Clear
3:56 PM 57.2 °F - 37.4 °F 48% 30.19 in 10.0 mi NW 13.8 mph 19.6 mph N/A   Clear
4:16 PM 57.2 °F - 37.4 °F 48% 30.18 in 10.0 mi WNW 15.0 mph 20.7 mph N/A   Clear
4:36 PM 57.2 °F - 37.4 °F 48% 30.19 in 10.0 mi NW 15.0 mph 21.9 mph N/A   Clear
4:56 PM 59.0 °F - 37.4 °F 45% 30.18 in 10.0 mi NW 11.5 mph - N/A   Clear
5:16 PM 57.2 °F - 37.4 °F 48% 30.18 in 10.0 mi NW 12.7 mph 19.6 mph N/A   Clear
5:36 PM 57.2 °F - 37.4 °F 48% 30.18 in 9.0 mi NW 9.2 mph 16.1 mph N/A   Clear
5:56 PM 59.0 °F - 39.2 °F 48% 30.18 in 10.0 mi WNW 13.8 mph 20.7 mph N/A   Clear
6:16 PM 59.0 °F - 39.2 °F 48% 30.18 in 10.0 mi WNW 13.8 mph 20.7 mph N/A   Clear
6:36 PM 59.0 °F - 39.2 °F 48% 30.18 in 10.0 mi NW 13.8 mph 20.7 mph N/A   Clear
6:56 PM 59.0 °F - 39.2 °F 48% 30.18 in 10.0 mi NW 13.8 mph 20.7 mph N/A   Clear
7:16 PM 59.0 °F - 39.2 °F 48% 30.18 in 10.0 mi NW 15.0 mph - N/A   Clear
7:36 PM 59.0 °F - 39.2 °F 48% 30.18 in 10.0 mi NW 13.8 mph - N/A   Clear
7:56 PM 57.2 °F - 39.2 °F 51% 30.18 in 9.0 mi NW 10.4 mph - N/A   Clear
8:16 PM 57.2 °F - 39.2 °F 51% 30.18 in 10.0 mi NW 13.8 mph 17.3 mph N/A   Clear
8:36 PM 57.2 °F - 39.2 °F 51% 30.19 in 10.0 mi WNW 12.7 mph - N/A   Clear
8:56 PM 57.2 °F - 41.0 °F 55% 30.19 in 9.0 mi WNW 12.7 mph - N/A   Clear
9:16 PM 55.4 °F - 41.0 °F 58% 30.19 in 10.0 mi WNW 11.5 mph - N/A   Clear
9:36 PM 55.4 °F - 39.2 °F 54% 30.19 in 10.0 mi West 12.7 mph - N/A   Clear
9:56 PM 53.6 °F - 39.2 °F 58% 30.19 in 10.0 mi WNW 13.8 mph 20.7 mph N/A   Clear
10:16 PM 53.6 °F - 39.2 °F 58% 30.19 in 10.0 mi WNW 15.0 mph - N/A   Clear
10:36 PM 51.8 °F - 39.2 °F 62% 30.18 in 10.0 mi WNW 12.7 mph 17.3 mph N/A   Clear
10:56 PM 51.8 °F - 39.2 °F 62% 30.19 in 10.0 mi West 9.2 mph - N/A   Clear
11:16 PM 50.0 °F - 39.2 °F 66% 30.20 in 10.0 mi WSW 8.1 mph - N/A   Clear
11:36 PM 48.2 °F - 39.2 °F 71% 30.20 in 10.0 mi West 8.1 mph - N/A   Clear
11:56 PM 48.2 °F - 39.2 °F 71% 30.19 in 9.0 mi West 8.1 mph - N/A   Clear